Location: Barcelona
(41.3830°N, 2.1830°E)
Time: 21:11:34
(UTC+01:00)

ISS - Pass Details

Date: 30 March 2017
Orbit: 399 x 409 km, 51.6° (Epoch: 24 March)

Event Time Altitude Azimuth Distance (km) Brightness Sun altitude
Rises 20:45:07 0° 233° (SW) 2,298 0.7 -6.5°
Reaches altitude 10° 20:47:11 10° 234° (SW) 1,444 -0.4 -6.9°
Maximum altitude 20:50:25 89° 311° (NW) 405 -3.8 -7.5°
Drops below altitude 10° 20:53:41 10° 54° (NE) 1,457 -1.4 -8.1°
Enters shadow 20:55:05 - 55° (NE) 2,037 -0.7 -8.3°
